DW1546 Weather Reports


Display with metric or nautical units.
time (UTC)temp
F
wind
direction
speed
MPH
gust
MPH
rain 1hr
in
rain 24hr
in
rain mn
in
humidity
%
barometer
mb
20260505070024 59 227 0.0 0.0 0.00 0.00 0.00 66 1010.8
20260505064525 60 227 0.0 0.0 0.00 0.00 0.00 65 1010.8
20260505063017 61 227 0.0 0.0 0.00 0.00 0.00 63 1011.1
20260505061516 61 227 0.0 0.0 0.00 0.00 0.00 62 1011.0
20260505060024 62 227 0.0 0.0 0.00 0.00 0.00 61 1011.1
20260505054518 63 227 0.0 0.0 0.00 0.00 0.00 60 1011.2
20260505053007 63 227 0.0 0.0 0.00 0.00 0.00 59 1011.3
20260505051507 64 227 0.0 0.0 0.00 0.00 0.00 58 1011.3
20260505041501 64 204 1.0 0.0 0.00 0.00 0.00 56 1011.1
20260505040103 64 203 1.0 0.0 0.00 0.00 0.00 56 1011.2
20260505034559 64 203 0.0 0.0 0.00 0.00 0.00 55 1011.1
20260505033115 65 203 0.0 0.0 0.00 0.00 0.00 54 1011.2
20260505031557 65 203 0.0 0.0 0.00 0.00 0.00 53 1011.0
20260505030057 65 203 0.0 0.0 0.00 0.00 0.00 52 1011.0
20260505024604 65 203 0.0 0.0 0.00 0.00 0.00 52 1011.1
20260505023106 65 203 0.0 0.0 0.00 0.00 0.00 51 1011.2
20260505021557 66 203 0.0 0.0 0.00 0.00 0.00 50 1011.0
20260505020056 66 203 0.0 0.0 0.00 0.00 0.00 49 1011.1
20260505014555 67 203 0.0 0.0 0.00 0.00 0.00 48 1011.0
20260505013054 67 203 0.0 0.0 0.00 0.00 0.00 47 1010.8
20260505011559 68 203 0.0 0.0 0.00 0.00 0.00 46 1010.7
20260505010058 69 203 0.0 0.0 0.00 0.00 0.00 45 1010.4
20260505004558 69 203 0.0 0.0 0.00 0.00 0.00 44 1010.4
20260505003053 70 203 0.0 0.0 0.00 0.00 0.00 43 1010.2
20260505001552 70 209 0.0 0.0 0.00 0.00 0.00 42 1010.3
20260505000053 70 221 1.0 0.0 0.00 0.00 0.00 41 1010.2
20260504234614 71 188 1.0 0.0 0.00 0.00 0.00 40 1010.1
20260504233052 71 221 1.0 0.0 0.00 0.00 0.00 39 1010.2
20260504231555 72 223 1.0 0.0 0.00 0.00 0.00 39 1010.1
20260504230049 72 234 3.0 0.0 0.00 0.00 0.00 38 1010.1
20260504224557 72 171 4.0 0.0 0.00 0.00 0.00 37 1010.2
20260504223048 73 211 2.0 0.0 0.00 0.00 0.00 36 1010.0
20260504221559 74 187 2.0 0.0 0.00 0.00 0.00 35 1009.9
20260504220052 74 189 1.0 0.0 0.00 0.00 0.00 35 1009.8
20260504214551 74 155 3.0 0.0 0.00 0.00 0.00 34 1010.0
20260504213052 75 167 2.0 0.0 0.00 0.00 0.00 35 1010.1
20260504211544 75 199 4.0 0.0 0.00 0.00 0.00 34 1010.2
20260504210053 74 252 3.0 0.0 0.00 0.00 0.00 35 1010.2
20260504204619 75 186 2.0 0.0 0.00 0.00 0.00 34 1010.2
20260504203042 75 218 4.0 0.0 0.00 0.00 0.00 34 1010.2
20260504201540 75 237 3.0 0.0 0.00 0.00 0.00 35 1010.5
20260504200041 76 254 3.0 0.0 0.00 0.00 0.00 33 1010.6
20260504194637 76 225 1.0 0.0 0.00 0.00 0.00 33 1010.9
20260504193034 75 285 2.0 0.0 0.00 0.00 0.00 34 1011.2
20260504191531 74 205 5.0 0.0 0.00 0.00 0.00 35 1011.4
20260504190035 74 183 3.0 0.0 0.00 0.00 0.00 34 1011.8
20260504184528 74 251 4.0 0.0 0.00 0.00 0.00 34 1012.1
20260504183029 74 131 2.0 0.0 0.00 0.00 0.00 34 1012.2
20260504181525 74 296 3.0 0.0 0.00 0.00 0.00 34 1012.4
20260504180023 73 246 4.0 0.0 0.00 0.00 0.00 34 1012.6
20260504174520 73 243 3.0 0.0 0.00 0.00 0.00 35 1012.7
20260504173020 73 198 2.0 0.0 0.00 0.00 0.00 32 1012.8
20260504171533 72 117 3.0 0.0 0.00 0.00 0.00 33 1013.0
20260504081525 42 232 0.0 0.0 0.00 0.00 0.00 92 1016.1